IRIDIUM 33 DEB, 35848

Orbit data source: Space-Track

IRIDIUM 33 DEB, 35848 is space debris in LEO originally from a launch on Sun, 14 Sep 1997 UTC launched from the Tyuratam Missile And Space Complex (TTMTR). The debris from Iridium 33, an American commercial communications satellite, has been tracked extensively since its accidental collision with the defunct Russian satellite Cosmos 2251 in 2009. This event, occurring at high speed in low Earth orbit (LEO), generated thousands of pieces of space debris, significantly increasing the risk of further collisions. The Iridium 33 debris cloud has impacted space traffic management and orbital debris mitigation strategies, making it a subject of ongoing study in space situational awareness.

Loading next visibility...
Identifier
35848, 1997-051SY
Orbit
LEO
Country
Flag of USUS
Related business
Manufacturer
Unknown
Mission
Spacecraft
Bus & Motor
Unknown
Mass
Unknown
Launch date (UTC)
1997-09-14 (29 years ago)
Launch vehicle
Unknown
Launch site
Tyuratam Missile And Space Complex (TTMTR)
Object type
Payload
Rocket body
Debris
Shape & HBR
Unknown shape, 0.1 m
Radar Cross Section
Small (<0.1 m²)

Expand to show TLE details & history
Last TLE update: 1 week ago

TLE from 1 week ago
0 IRIDIUM 33 DEB
1 35848U 97051SY  26167.05193724  .00008173  00000-0  99761-3 0  9997
2 35848  86.3866 292.4389 0005627 268.0806  91.9772 14.83203747694333
Epoch: 2026-06-16T01:14Z
TLE epoch observation values (Epoch: 2026-06-16T01:14:47.377Z)
Latitude
-0.00008°
Longitude
9.41198°
Altitude
622.488 km
Speed
7.547 km/s
True Right ascension
19h 29m 45s
True Declination
0° 00' 00"
Sunlit
Object was in full shadow at epoch
Visualization orbit readout
Latitude
Unknown
Longitude
Unknown
Altitude
Unknown
Speed
Unknown
Apparent Right ascension
Unknown
Apparent Declination
Unknown
Sunlit
N/A
Visualization observer readout
Local Sidereal Time
07:08:50
Azimuth
Unknown
Elevation
Unknown
Doppler factor
Unknown
Orbital elements
Apogee altitude
620.061 km
Perigee altitude
612.19 km
Semi-major axis
6,994.262 km
Eccentricity
0.00056
Inclination
86.3866°
RAAN
292.4389°
Arg. of periapsis
268.0806°
True anomaly
92.04164°
Mean anomaly
91.9772°
Eccentric anomaly
92.00942°
Mean motion
3.71048 °/min
Orbital period
97.02 mins
BSTAR
0.00099761
Loading maneuver chart data...
Computing Atmospheric mass density...

Documentation

Showing up to 5 results
|